Weather History for Murray, KY

Change the Weather History Date:

Friday, December 13, 2013

  Actual Average (KPAH) Record (KPAH)
Temperature  
Mean Temperature 31 °F 38 °F  
Max Temperature 39 °F 47 °F 72 °F (1948)
Min Temperature 23 °F 29 °F -3 °F (1962)
Degree Days  
Heating Degree Days 34 27  
Month to date heating degree days 330  
Since 1 July heating degree days 1107  
Cooling Degree Days 0 0  
Month to date cooling degree days 0  
Year to date cooling degree days 1542  
Moisture  
Dew Point 21 °F    
Average Humidity 61    
Maximum Humidity 87    
Minimum Humidity 48    
Precipitation  
Precipitation 0.05 in 0.15 in 1.21 in (1977)
Month to date precipitation 2.03  
Year to date precipitation 46.52  
Snow  
Snow 0.00 in 0.10 in 3.60 in (2000)
Month to date snowfall 0.7  
Since 1 July snowfall 0.8  
Snow Depth -    
Sea Level Pressure  
Sea Level Pressure 30.20 in    
Wind  
Wind Speed 5 mph (SSE)    
Max Wind Speed 13 mph    
Max Gust Speed 17 mph    
Visibility 10 miles    
Events      
T = Trace of Precipitation, MM = Missing Value Source: NWS Daily Summary

Daily Weather History Graph

Daily Weather History Graph

Search for Another Location

Airport:

Trip Planner

Search our weather history database for the weather conditions in past years. The results will help you decide how hot, cold, wet, or windy it might be!

Date:

Astronomy

Dec. 13, 2013 Rise Set
Actual Time 6:57 AM CST 4:38 PM CST
Civil Twilight 6:28 AM CST 5:07 PM CST
Nautical Twilight 5:56 AM CST 5:39 PM CST
Astronomical Twilight 5:24 AM CST 6:10 PM CST
Moon 2:17 PM CST (12/13) 3:23 AM CST (12/13)
Length of Visible Light 10h 38m
Length of Day
9h 40m
Waxing Gibbous, 88% of the Moon is Illuminated
Dec 13
Waxing Gibbous
Dec 17
Full
Dec 25
Last Quarter
Jan 1
New
Jan 7
First Quarter

Hourly Weather History & Observations

Time (CST) Temp. Windchill Dew Point Humidity Pressure Visibility Wind Dir Wind Speed Gust Speed Precip Events Conditions
12:15 AM 26.6 °F 21.2 °F 14.0 °F 59% 30.37 in 10.0 mi South 4.6 mph - N/A   Clear
12:35 AM 26.6 °F 20.0 °F 14.0 °F 59% 30.36 in 10.0 mi South 5.8 mph - N/A   Clear
12:55 AM 26.6 °F 20.0 °F 14.0 °F 59% 30.35 in 10.0 mi South 5.8 mph - N/A   Clear
1:15 AM 26.6 °F 20.0 °F 14.0 °F 59% 30.34 in 10.0 mi South 5.8 mph - N/A   Clear
1:35 AM 26.6 °F 19.1 °F 14.0 °F 59% 30.34 in 10.0 mi South 6.9 mph - N/A   Clear
1:55 AM 26.6 °F 21.2 °F 14.0 °F 59% 30.33 in 10.0 mi South 4.6 mph - N/A   Clear
2:15 AM 26.6 °F 20.0 °F 14.0 °F 59% 30.33 in 10.0 mi South 5.8 mph - N/A   Clear
2:35 AM 26.6 °F 20.0 °F 14.0 °F 59% 30.33 in 10.0 mi South 5.8 mph - N/A   Clear
2:55 AM 26.6 °F 20.0 °F 14.0 °F 59% 30.32 in 10.0 mi South 5.8 mph - N/A   Clear
3:15 AM 26.6 °F 20.0 °F 14.0 °F 59% 30.31 in 10.0 mi South 5.8 mph - N/A   Clear
3:35 AM 26.6 °F 21.2 °F 14.0 °F 59% 30.31 in 10.0 mi South 4.6 mph - N/A   Clear
3:55 AM 24.8 °F 19.1 °F 14.0 °F 64% 30.30 in 10.0 mi South 4.6 mph - N/A   Clear
4:15 AM 24.8 °F 20.5 °F 14.0 °F 64% 30.30 in 10.0 mi South 3.5 mph - N/A   Clear
4:35 AM 23.0 °F 17.0 °F 14.0 °F 68% 30.31 in 10.0 mi South 4.6 mph - N/A   Clear
4:55 AM 24.8 °F 17.9 °F 14.0 °F 64% 30.30 in 10.0 mi South 5.8 mph - N/A   Clear
5:15 AM 24.8 °F 17.9 °F 14.0 °F 64% 30.30 in 10.0 mi South 5.8 mph - N/A   Clear
5:35 AM 24.8 °F 16.9 °F 14.0 °F 64% 30.30 in 10.0 mi South 6.9 mph - N/A   Clear
5:55 AM 23.0 °F 17.0 °F 14.0 °F 68% 30.30 in 10.0 mi South 4.6 mph - N/A   Clear
6:15 AM 24.8 °F 19.1 °F 14.0 °F 64% 30.30 in 10.0 mi South 4.6 mph - N/A   Clear
6:35 AM 24.8 °F 19.1 °F 14.0 °F 64% 30.30 in 10.0 mi South 4.6 mph - N/A   Clear
6:55 AM 23.0 °F 17.0 °F 15.8 °F 74% 30.30 in 10.0 mi South 4.6 mph - N/A   Clear
7:15 AM 24.8 °F 19.1 °F 14.0 °F 64% 30.30 in 10.0 mi South 4.6 mph - N/A   Clear
7:35 AM 24.8 °F 17.9 °F 15.8 °F 69% 30.29 in 10.0 mi South 5.8 mph - N/A   Clear
7:55 AM 28.4 °F 22.2 °F 15.8 °F 59% 30.30 in 10.0 mi South 5.8 mph - N/A   Clear
8:15 AM 30.2 °F 24.3 °F 17.6 °F 60% 30.29 in 10.0 mi SSE 5.8 mph - N/A   Clear
8:35 AM 32.0 °F 25.6 °F 17.6 °F 55% 30.29 in 10.0 mi South 6.9 mph - N/A   Clear
8:55 AM 32.0 °F 26.4 °F 17.6 °F 55% 30.30 in 10.0 mi South 5.8 mph - N/A   Clear
9:15 AM 32.0 °F 27.5 °F 19.4 °F 60% 30.30 in 10.0 mi South 4.6 mph - N/A   Clear
9:35 AM 33.8 °F 28.6 °F 19.4 °F 56% 30.29 in 10.0 mi SSE 5.8 mph - N/A   Clear
9:55 AM 35.6 °F 32.8 °F 19.4 °F 52% 30.29 in 10.0 mi South 3.5 mph - N/A   Clear
10:15 AM 35.6 °F 30.7 °F 21.2 °F 56% 30.29 in 10.0 mi South 5.8 mph - N/A   Clear
10:35 AM 39.2 °F 33.6 °F 23.0 °F 52% 30.28 in 10.0 mi SSW 8.1 mph - N/A   Clear
10:55 AM 37.4 °F 31.4 °F 19.4 °F 48% 30.27 in 10.0 mi South 8.1 mph - N/A   Clear
11:15 AM 39.2 °F 33.6 °F 21.2 °F 49% 30.26 in 10.0 mi SSW 8.1 mph - N/A   Clear
11:35 AM 39.2 °F 33.6 °F 21.2 °F 49% 30.24 in 10.0 mi South 8.1 mph - N/A   Clear
11:55 AM 39.2 °F 35.9 °F 23.0 °F 52% 30.23 in 10.0 mi South 4.6 mph - N/A   Clear
12:15 PM 39.2 °F 33.6 °F 21.2 °F 49% 30.21 in 10.0 mi South 8.1 mph - N/A   Partly Cloudy
12:35 PM 39.2 °F 35.0 °F 21.2 °F 49% 30.20 in 10.0 mi South 5.8 mph - N/A   Clear
12:55 PM 39.2 °F 35.9 °F 21.2 °F 49% 30.19 in 10.0 mi South 4.6 mph - N/A   Partly Cloudy
1:15 PM 39.2 °F 35.9 °F 23.0 °F 52% 30.17 in 10.0 mi SSE 4.6 mph - N/A   Partly Cloudy
1:35 PM 39.2 °F 35.9 °F 23.0 °F 52% 30.15 in 10.0 mi SSE 4.6 mph - N/A   Partly Cloudy
1:55 PM 39.2 °F 34.2 °F 23.0 °F 52% 30.14 in 10.0 mi SE 6.9 mph - N/A   Scattered Clouds
2:15 PM 39.2 °F 35.9 °F 23.0 °F 52% 30.13 in 10.0 mi SE 4.6 mph - N/A   Mostly Cloudy
2:35 PM 39.2 °F 37.0 °F 23.0 °F 52% 30.13 in 10.0 mi ESE 3.5 mph - N/A   Mostly Cloudy
2:55 PM 39.2 °F 35.9 °F 24.8 °F 56% 30.13 in 10.0 mi SE 4.6 mph - N/A   Overcast
3:15 PM 39.2 °F 37.0 °F 23.0 °F 52% 30.14 in 10.0 mi SE 3.5 mph - N/A   Mostly Cloudy
3:35 PM 39.2 °F 37.0 °F 23.0 °F 52% 30.14 in 10.0 mi ESE 3.5 mph - N/A   Partly Cloudy
3:55 PM 39.2 °F 35.9 °F 23.0 °F 52% 30.14 in 10.0 mi ESE 4.6 mph - N/A   Partly Cloudy
4:15 PM 39.2 °F 37.0 °F 26.6 °F 61% 30.14 in 10.0 mi SE 3.5 mph - N/A   Clear
4:35 PM 37.4 °F - 24.8 °F 60% 30.14 in 10.0 mi Calm Calm - N/A   Clear
4:55 PM 37.4 °F 34.9 °F 24.8 °F 60% 30.14 in 10.0 mi ESE 3.5 mph - N/A   Mostly Cloudy
5:15 PM 37.4 °F 32.8 °F 23.0 °F 56% 30.12 in 10.0 mi ESE 5.8 mph - N/A   Overcast
5:35 PM 37.4 °F 32.1 °F 24.8 °F 60% 30.11 in 10.0 mi SE 6.9 mph - N/A   Overcast
5:55 PM 37.4 °F 34.9 °F 24.8 °F 60% 30.10 in 10.0 mi SE 3.5 mph - N/A   Overcast
6:15 PM 37.4 °F 32.8 °F 24.8 °F 60% 30.07 in 10.0 mi East 5.8 mph - N/A   Overcast
6:35 PM 37.4 °F 32.1 °F 24.8 °F 60% 30.07 in 10.0 mi East 6.9 mph - N/A   Overcast
6:55 PM 37.4 °F 32.8 °F 24.8 °F 60% 30.07 in 10.0 mi East 5.8 mph - N/A   Overcast
7:15 PM 35.6 °F 32.8 °F 28.4 °F 75% 30.08 in 10.0 mi SSW 3.5 mph - N/A   Mostly Cloudy
7:35 PM 37.4 °F - 24.8 °F 60% 30.09 in 10.0 mi Calm Calm - N/A   Overcast
7:55 PM 37.4 °F 32.8 °F 24.8 °F 60% 30.11 in 10.0 mi SE 5.8 mph - N/A   Overcast
8:15 PM 37.4 °F 33.8 °F 26.6 °F 65% 30.09 in 10.0 mi SSE 4.6 mph - N/A   Overcast
8:35 PM 37.4 °F 32.1 °F 24.8 °F 60% 30.09 in 10.0 mi SE 6.9 mph - N/A   Overcast
8:55 PM 37.4 °F 32.1 °F 26.6 °F 65% 30.07 in 8.0 mi SE 6.9 mph - N/A   Overcast
9:15 PM 39.2 °F 31.6 °F 26.6 °F 61% 30.07 in 10.0 mi South 12.7 mph 17.3 mph N/A   Overcast
9:35 PM 37.4 °F 33.8 °F 30.2 °F 75% 30.04 in 7.0 mi SE 4.6 mph - N/A   Overcast
9:55 PM 35.6 °F - 30.2 °F 81% 30.03 in 10.0 mi Calm Calm - 0.01 in   Overcast
10:15 PM 35.6 °F 32.8 °F 32.0 °F 87% 30.02 in 8.0 mi ESE 3.5 mph - 0.02 in   Overcast
10:35 PM 35.6 °F 30.7 °F 32.0 °F 87% 30.01 in 7.0 mi East 5.8 mph - 0.03 in   Overcast
10:55 PM 35.6 °F 30.7 °F 32.0 °F 87% 30.00 in 5.0 mi SE 5.8 mph - 0.03 in   Overcast
11:15 PM 35.6 °F 30.7 °F 32.0 °F 87% 29.98 in 7.0 mi SE 5.8 mph - N/A   Overcast
11:35 PM 35.6 °F 29.9 °F 32.0 °F 87% 29.97 in 5.0 mi SE 6.9 mph - 0.01 in   Overcast
11:55 PM 35.6 °F 29.2 °F 32.0 °F 87% 29.96 in 7.0 mi SE 8.1 mph - 0.01 in   Overcast